When you browse on this site, cookies collect data to enhance your experience and personalize the content and advertising you see.
Visit our Privacy Policy to learn more. By continuing to use the site, you agree to this use of cookies and data.
  • In Hungary
  • List of Countries
  • For 7 days
  • Water Temperature
  • Weather Map
  • News
  • Weather Widgets
  • user-avatar
    Login

    Hourly Weather Steinsel

    Today, 18 August, Sunday

    Time Temperature Precipitation Wind Pressure Humidity
    00:00 +17°C° 0 mm 2 mps 724 mmHg 99%
    01:00 +18°C° 0.8 mm 3 mps 724 mmHg 98%
    02:00 +18°C° 0.8 mm 4 mps 723 mmHg 97%
    03:00 +19°C° 0.8 mm 5 mps 723 mmHg 97%
    04:00 +19°C° 0.3 mm 5 mps 723 mmHg 97%
    05:00 +19°C° 0.3 mm 5 mps 723 mmHg 96%
    06:00 +19°C° 0.3 mm 5 mps 723 mmHg 96%
    07:00 +19°C° 0.1 mm 5 mps 723 mmHg 94%
    08:00 +20°C° 0.1 mm 6 mps 723 mmHg 91%
    09:00 +20°C° 0.1 mm 6 mps 723 mmHg 89%
    10:00 +21°C° 0.3 mm 6 mps 723 mmHg 86%
    11:00 +21°C° 0.3 mm 7 mps 723 mmHg 84%
    12:00 +21°C° 0.3 mm 7 mps 724 mmHg 82%
    13:00 +22°C° 0.8 mm 7 mps 724 mmHg 81%
    14:00 +22°C° 0.8 mm 7 mps 724 mmHg 80%
    15:00 +22°C° 0.8 mm 7 mps 724 mmHg 79%
    16:00 +21°C° 0.2 mm 6 mps 725 mmHg 82%
    17:00 +20°C° 0.2 mm 5 mps 725 mmHg 86%
    18:00 +18°C° 0.2 mm 3 mps 725 mmHg 89%
    19:00 +17°C° 0 mm 3 mps 726 mmHg 91%
    20:00 +17°C° 0 mm 3 mps 726 mmHg 92%
    21:00 +16°C° 0 mm 2 mps 726 mmHg 94%
    22:00 +15°C° 0 mm 2 mps 727 mmHg 92%
    23:00 +14°C° 0 mm 1 mps 727 mmHg 90%

    Tomorrow, 19 August, Monday

    Time Temperature Precipitation Wind Pressure Humidity
    00:00 +14°C° 0 mm 1 mps 727 mmHg 88%
    01:00 +13°C° 0 mm 1 mps 727 mmHg 87%
    02:00 +13°C° 0 mm 1 mps 728 mmHg 87%
    03:00 +13°C° 0 mm 2 mps 728 mmHg 87%
    04:00 +13°C° 0 mm 2 mps 728 mmHg 87%
    05:00 +13°C° 0 mm 2 mps 729 mmHg 87%
    06:00 +13°C° 0 mm 2 mps 729 mmHg 88%
    07:00 +14°C° 0 mm 3 mps 729 mmHg 80%
    08:00 +16°C° 0 mm 3 mps 730 mmHg 72%
    09:00 +18°C° 0 mm 4 mps 730 mmHg 64%
    10:00 +19°C° 0 mm 4 mps 730 mmHg 61%
    11:00 +19°C° 0 mm 4 mps 731 mmHg 58%
    12:00 +20°C° 0 mm 4 mps 731 mmHg 55%
    13:00 +20°C° 0 mm 4 mps 731 mmHg 56%
    14:00 +20°C° 0 mm 4 mps 731 mmHg 56%
    15:00 +20°C° 0 mm 3 mps 731 mmHg 56%
    16:00 +19°C° 0 mm 3 mps 731 mmHg 61%
    17:00 +18°C° 0 mm 2 mps 731 mmHg 66%
    18:00 +17°C° 0 mm 2 mps 731 mmHg 71%
    19:00 +16°C° 0 mm 1 mps 731 mmHg 75%
    20:00 +15°C° 0 mm 1 mps 731 mmHg 78%
    21:00 +14°C° 0 mm 1 mps 731 mmHg 82%
    22:00 +13°C° 0 mm 1 mps 732 mmHg 82%
    23:00 +13°C° 0 mm 1 mps 732 mmHg 83%

    Day after tomorrow, 20 August, Tuesday

    Time Temperature Precipitation Wind Pressure Humidity
    00:00 +11°C° 0 mm 0 mps 732 mmHg 84%
    01:00 +11°C° 0 mm 0 mps 732 mmHg 84%
    02:00 +11°C° 0 mm 0 mps 732 mmHg 85%
    03:00 +11°C° 0 mm 0 mps 732 mmHg 86%
    04:00 +11°C° 0 mm 0 mps 732 mmHg 84%
    05:00 +12°C° 0 mm 0 mps 733 mmHg 82%
    06:00 +12°C° 0 mm 0 mps 733 mmHg 81%
    07:00 +15°C° 0 mm 1 mps 733 mmHg 74%
    08:00 +16°C° 0 mm 1 mps 734 mmHg 68%
    09:00 +19°C° 0 mm 1 mps 734 mmHg 62%
    10:00 +19°C° 0 mm 2 mps 734 mmHg 59%
    11:00 +19°C° 0 mm 2 mps 734 mmHg 56%
    12:00 +20°C° 0 mm 3 mps 735 mmHg 53%
    13:00 +20°C° 0 mm 3 mps 735 mmHg 53%
    14:00 +20°C° 0 mm 2 mps 735 mmHg 54%
    15:00 +20°C° 0 mm 2 mps 735 mmHg 54%
    16:00 +19°C° 0 mm 2 mps 735 mmHg 59%
    17:00 +18°C° 0 mm 2 mps 735 mmHg 65%
    18:00 +17°C° 0 mm 2 mps 735 mmHg 70%
    19:00 +16°C° 0 mm 2 mps 736 mmHg 72%
    20:00 +14°C° 0 mm 2 mps 736 mmHg 73%
    21:00 +13°C° 0 mm 1 mps 736 mmHg 75%
    22:00 +13°C° 0 mm 1 mps 736 mmHg 77%
    23:00 +12°C° 0 mm 1 mps 736 mmHg 79%

    21 August, Wednesday

    Time Temperature Precipitation Wind Pressure Humidity
    00:00 +11°C° 0 mm 1 mps 736 mmHg 81%
    01:00 +11°C° 0 mm 1 mps 736 mmHg 83%
    02:00 +11°C° 0 mm 1 mps 736 mmHg 84%
    03:00 +10°C° 0 mm 1 mps 736 mmHg 85%
    04:00 +11°C° 0 mm 1 mps 737 mmHg 84%
    05:00 +10°C° 0 mm 2 mps 737 mmHg 82%
    06:00 +12°C° 0 mm 2 mps 737 mmHg 81%
    07:00 +14°C° 0 mm 2 mps 737 mmHg 73%
    08:00 +16°C° 0 mm 2 mps 737 mmHg 65%
    09:00 +19°C° 0 mm 2 mps 737 mmHg 57%
    10:00 +19°C° 0 mm 2 mps 737 mmHg 53%
    11:00 +20°C° 0 mm 2 mps 737 mmHg 49%
    12:00 +21°C° 0 mm 2 mps 736 mmHg 45%
    13:00 +23°C° 0 mm 2 mps 736 mmHg 45%
    14:00 +22°C° 0 mm 3 mps 736 mmHg 45%
    15:00 +22°C° 0 mm 3 mps 736 mmHg 45%
    16:00 +21°C° 0 mm 3 mps 735 mmHg 51%
    17:00 +19°C° 0 mm 2 mps 735 mmHg 57%
    18:00 +18°C° 0 mm 2 mps 735 mmHg 62%
    19:00 +17°C° 0 mm 2 mps 735 mmHg 65%
    20:00 +15°C° 0 mm 2 mps 735 mmHg 67%
    21:00 +14°C° 0 mm 2 mps 735 mmHg 69%
    22:00 +14°C° 0 mm 2 mps 735 mmHg 71%
    23:00 +13°C° 0 mm 2 mps 735 mmHg 72%

    22 August, Thursday

    Time Temperature Precipitation Wind Pressure Humidity
    00:00 +13°C° 0 mm 2 mps 735 mmHg 74%
    01:00 +12°C° 0 mm 2 mps 735 mmHg 74%
    02:00 +12°C° 0 mm 2 mps 735 mmHg 75%
    03:00 +12°C° 0 mm 2 mps 734 mmHg 75%
    04:00 +12°C° 0 mm 2 mps 734 mmHg 75%
    05:00 +13°C° 0 mm 2 mps 735 mmHg 75%
    06:00 +13°C° 0 mm 2 mps 735 mmHg 75%
    07:00 +16°C° 0 mm 2 mps 735 mmHg 70%
    08:00 +18°C° 0 mm 2 mps 735 mmHg 65%
    09:00 +20°C° 0 mm 2 mps 735 mmHg 60%
    10:00 +21°C° 0 mm 2 mps 735 mmHg 55%
    11:00 +24°C° 0 mm 2 mps 735 mmHg 51%
    12:00 +25°C° 0 mm 2 mps 735 mmHg 47%
    13:00 +25°C° 0 mm 2 mps 734 mmHg 46%
    14:00 +25°C° 0 mm 2 mps 734 mmHg 45%
    15:00 +26°C° 0 mm 2 mps 734 mmHg 45%
    16:00 +24°C° 0 mm 2 mps 734 mmHg 51%
    17:00 +23°C° 0 mm 2 mps 734 mmHg 57%
    18:00 +21°C° 0 mm 1 mps 734 mmHg 63%
    19:00 +19°C° 0 mm 2 mps 734 mmHg 67%
    20:00 +18°C° 0 mm 2 mps 735 mmHg 70%
    21:00 +16°C° 0 mm 2 mps 735 mmHg 74%
    22:00 +16°C° 0 mm 2 mps 735 mmHg 75%
    23:00 +15°C° 0 mm 2 mps 735 mmHg 77%

    23 August, Friday

    Time Temperature Precipitation Wind Pressure Humidity
    00:00 +15°C° 0 mm 2 mps 735 mmHg 78%
    01:00 +14°C° 0 mm 2 mps 735 mmHg 78%
    02:00 +14°C° 0 mm 2 mps 734 mmHg 78%
    03:00 +14°C° 0 mm 2 mps 734 mmHg 78%
    04:00 +14°C° 0 mm 2 mps 734 mmHg 77%
    05:00 +15°C° 0 mm 2 mps 735 mmHg 76%
    06:00 +15°C° 0 mm 2 mps 735 mmHg 75%
    07:00 +18°C° 0 mm 2 mps 735 mmHg 69%
    08:00 +20°C° 0 mm 3 mps 735 mmHg 63%
    09:00 +22°C° 0 mm 3 mps 735 mmHg 56%
    10:00 +23°C° 0 mm 4 mps 735 mmHg 53%
    11:00 +25°C° 0 mm 4 mps 735 mmHg 49%
    12:00 +26°C° 0 mm 4 mps 734 mmHg 45%
    13:00 +26°C° 0 mm 4 mps 734 mmHg 45%
    14:00 +26°C° 0 mm 4 mps 734 mmHg 46%
    15:00 +27°C° 0 mm 4 mps 733 mmHg 46%
    16:00 +25°C° 0 mm 4 mps 733 mmHg 51%
    17:00 +24°C° 0 mm 3 mps 733 mmHg 55%
    18:00 +21°C° 0 mm 2 mps 733 mmHg 60%
    19:00 +20°C° 0 mm 2 mps 733 mmHg 63%
    20:00 +18°C° 0 mm 2 mps 733 mmHg 66%
    21:00 +17°C° 0 mm 2 mps 733 mmHg 68%
    22:00 +17°C° 0 mm 2 mps 732 mmHg 70%
    23:00 +16°C° 0 mm 2 mps 732 mmHg 72%
    Show more